AirNav   Everest Fuels
 
 500 users online  

CA57 Blake Sky Park Airport
Vacaville, California, USA

GOING TO VACAVILLE?


FAA INFORMATION EFFECTIVE 26 JANUARY 2023

Location

FAA Identifier: CA57
Lat/Long: 38-27-29.6690N 122-02-43.8890W
38-27.494483N 122-02.731483W
38.4582414,-122.0455247
(estimated)
Elevation: 310 ft. / 94 m (estimated)
Variation: 16E (1985)
From city: 6 miles NW of VACAVILLE, CA
Time zone: UTC -8 (UTC -7 during Daylight Saving Time)
Zip code: 95688

Airport Operations

Airport use: CLOSED INDEFINITELY
Activation date: 08/1972
Control tower: no
ARTCC: OAKLAND CENTER
FSS: RANCHO MURIETA FLIGHT SERVICE STATION
Attendance: DAYLIGHT HOURS
Wind indicator: yes
Segmented circle: yes

Airport Communications

WX ASOS at VCB (6 nm SE): 134.75 (707-448-1594)
WX AWOS-3P at DWA (11 nm NE): 125.775 (530-750-2759)
WX AWOS-3 at EDU (13 nm E): 119.025 (530-754-6839)
WX ASOS at APC (18 nm SW): PHONE 707-252-7916

Nearby radio navigation aids

VOR radial/distance  VOR name  Freq  Var
SGDr026/22.8SCAGGS ISLAND VORTAC112.1017E
SACr255/23.2SACRAMENTO VORTAC115.2017E
CCRr343/24.8CONCORD VOR/DME117.0017E
MCCr230/32.6MC CLELLAN VOR/DME109.2017E
ILAr163/36.8WILLIAMS VORTAC114.4018E

Airport Services

Airframe service: MINOR
Powerplant service: MINOR

Runway Information

Runway 17/35

Dimensions: 1600 x 75 ft. / 488 x 23 m
Surface: turf
RUNWAY 17  RUNWAY 35
Traffic pattern: rightleft
Obstructions: 30 ft. plines, 400 ft. from runwaynone

Airport Ownership and Management from official FAA records

Ownership: Privately-owned
Owner: WM K BLAKE
8100 PLEASANTS VALLEY RD.
VACAVILLE, CA 95688
Phone 707-448-7280
Manager: WM K BLAKE
8100 PLEASANTS VALLEY RD.
VACAVILLE, CA 95688
Phone 707-448-7280

Airport Operational Statistics

Aircraft based on the field: 1
Helicopters: 1
    

Additional Remarks

FOR CD CTC OAKLAND ARTCC AT 510-745-3380.
(ARPT STATUS) ARPT CLSD INDEFLY.

Instrument Procedures

There are no published instrument procedures at CA57.

Some nearby airports with instrument procedures:

KVCB - Nut Tree Airport (6 nm SE)
KDWA - Yolo County Airport (11 nm NE)
KEDU - University Airport (13 nm E)
KSUU - Travis Air Force Base (13 nm SE)
O41 - Watts-Woodland Airport (15 nm NE)
KAPC - Napa County Airport (18 nm SW)
 
Loc | Ops | Rwys | IFR | FBO | Links
Com | Nav | Svcs | Stats | Notes

Sonoma Jet Center
 
Area around CA57 (Blake Sky Park Airport)
 
Road maps at: MapQuest Bing Google
 
Aerial photo
No photo
 
Sectional chart

 
Airport distance calculator
Flying to Blake Sky Park Airport? Find the distance to fly.

From to CA57

Sunrise and sunset
Times for 26-Jan-2023
 Local
(UTC-8)
 Zulu
(UTC)
Morning civil twilight06:5114:51
Sunrise07:1915:19
Sunset17:2201:22
Evening civil twilight17:5101:51

Current date and time
Zulu (UTC)  27-Jan-2023 07:56:52
Local (UTC-8)  26-Jan-2023 23:56:52
 
METAR
KVCB 
6nm SE 
270653Z AUTO 03003KT 8SM CLR 04/03 A3036 RMK AO2 SLP280 T00440028
KDWA 
11nm NE 
270735Z AUTO 00000KT 8SM CLR 06/05 A3036 RMK AO2
KEDU 
13nm E 
270735Z AUTO 00000KT 9SM CLR 07/05 A3036 RMK AO1
KSUU 
13nm SE 
270655Z AUTO 20003KT 10SM CLR 06/02 A3034 RMK AO2 SLPNO T00560024 $
KAPC 
19nm SW 
270654Z AUTO 02004KT 10SM CLR 06/02 A3036 RMK AO2 SLP272 T00610022
TAF
KSUU 
13nm SE 
270300Z 2703/2809 VRB06KT 9999 SKC QNH3005INS TEMPO 2714/2717 8000 BR TX17/2722Z TN01/2714Z
KAPC 
19nm SW 
270524Z 2706/2806 VRB03KT P6SM FEW250 FM272000 22009KT P6SM FEW250 FM280400 VRB03KT P6SM FEW250
NOTAMs
Click for the latest NOTAMs
NOTAMs are issued by the DoD/FAA and will open in a separate window not controlled by AirNav.

 

 
 

Would you like to see your business listed on this page?

 If your business provides an interesting product or service to pilots, flight crews, aircraft, or users of the Blake Sky Park Airport, you should consider listing it here.  To start the listing process, click on the button below
 
Add a business
 

Other Pages about Blake Sky Park Airport

Update a link
 
Copyright © AirNav, LLC. All rights reserved. Privacy Policy  Contact